WetterOnline ( https://www.wetteronline.de )

Wetter aktuell Capri

Aktuelles Wetter: Capri (161m)

6-stündlich | Neueste Meldungen
Ortszeit Temperatur Wetter
Mi, 28.02. 19:00 11.4° C leichter Regen
Mi, 28.02. 13:00 16.4° C wolkig
Mi, 28.02. 7:00 15.6° C bedeckt
Mi, 28.02. 1:00 15.2° C wolkig
Di, 27.02. 19:00 15.2° C wolkig
Di, 27.02. 13:00 15.2° C wolkenlos
Di, 27.02. 7:00 13.0° C leicht bewölkt
Di, 27.02. 1:00 13.0° C bedeckt
Ortszeit Temperatur Wetter
Mi, 28.02. 19:00 11.4° C leichter Regen
Mi, 28.02. 18:00 12.0° C leichter Regen
Mi, 28.02. 17:00 13.2° C bedeckt
Mi, 28.02. 16:00 16.8° C wolkig
Mi, 28.02. 15:00 17.0° C wolkig
Mi, 28.02. 14:00 17.0° C wolkig
Mi, 28.02. 13:00 16.4° C wolkig
Ortszeit Relative Feuchte Sichtweite
Mi, 28.02. 19:00 94% 10 km
Mi, 28.02. 13:00 59% 20 km
Mi, 28.02. 7:00 60% 12 km
Mi, 28.02. 1:00 75% 20 km
Di, 27.02. 19:00 81% 10 km
Di, 27.02. 13:00 72% 40 km
Di, 27.02. 7:00 71% 20 km
Di, 27.02. 1:00 70% 20 km
Ortszeit Relative Feuchte Sichtweite
Mi, 28.02. 19:00 94% 10 km
Mi, 28.02. 18:00 94% 10 km
Mi, 28.02. 17:00 88% 10 km
Mi, 28.02. 16:00 55% 10 km
Mi, 28.02. 15:00 53% 10 km
Mi, 28.02. 14:00 55% 10 km
Mi, 28.02. 13:00 59% 20 km
Ortszeit Niederschlagsmenge Niederschlagsart
Mi, 28.02. 19:00 1 l/m2 in 12 Std. Regen
Mi, 28.02. 13:00 0.0 l/m2 in 6 Std. -
Mi, 28.02. 7:00 0.0 l/m2 in 12 Std. -
Mi, 28.02. 1:00 0.0 l/m2 in 6 Std. -
Di, 27.02. 19:00 0.0 l/m2 in 12 Std. -
Di, 27.02. 13:00 0.0 l/m2 in 6 Std. -
Di, 27.02. 7:00 0.0 l/m2 in 12 Std. -
Di, 27.02. 1:00 0.0 l/m2 in 6 Std. -
Ortszeit Niederschlagsmenge Niederschlagsart
Mi, 28.02. 19:00 keine Meldung -
Mi, 28.02. 18:00 keine Meldung -
Mi, 28.02. 17:00 keine Meldung -
Mi, 28.02. 16:00 keine Meldung -
Mi, 28.02. 15:00 keine Meldung -
Mi, 28.02. 14:00 keine Meldung -
Mi, 28.02. 13:00 keine Meldung -
Ortszeit Stärke Spitze Richtung
km/h Bft. km/h Grad Sektor
Mi, 28.02. 19:00 11 2 - 210° SW
Mi, 28.02. 13:00 7 2 - 70° O
Mi, 28.02. 7:00 6 1 - 110° O
Mi, 28.02. 1:00 9 2 - 60° NO
Di, 27.02. 19:00 22 4 - 120° SO
Di, 27.02. 13:00 9 2 - 110° O
Di, 27.02. 7:00 20 4 - 120° SO
Di, 27.02. 1:00 19 3 - 110° O
Ortszeit Stärke Spitze Richtung
km/h Bft. km/h Grad Sektor
Mi, 28.02. 19:00 11 2 - 210° SW
Mi, 28.02. 18:00 9 2 - 100° O
Mi, 28.02. 17:00 9 2 - 50° NO
Mi, 28.02. 16:00 11 2 - 50° NO
Mi, 28.02. 15:00 9 2 - 30° NO
Mi, 28.02. 14:00 11 2 - 50° NO
Mi, 28.02. 13:00 7 2 - 70° O
Ortszeit Untergrenze Bedeckung Gattung
total tief tief mittel hoch
Mi, 28.02. 19:00 450 m 8/8 8/8 Cu - -
Mi, 28.02. 13:00 450 m 6/8 6/8 Cu - -
Mi, 28.02. 7:00 600 m 8/8 8/8 Cu - -
Mi, 28.02. 1:00 2400 m 8/8 8/8 - Ac -
Di, 27.02. 19:00 2400 m 8/8 8/8 - As -
Di, 27.02. 13:00 - 0/8 0/8 - - -
Di, 27.02. 7:00 900 m 4/8 4/8 Sc - -
Di, 27.02. 1:00 600 m 8/8 8/8 Cu - -
Ortszeit Bedeckungsgrad in Achtel und Wolkenuntergrenze
Mi, 28.02. 19:00 4(450m) 5(600m)
Mi, 28.02. 18:00 4(450m) 5(600m)
Mi, 28.02. 17:00 4(450m) 4(600m)
Mi, 28.02. 16:00 4(450m) 4(600m)
Mi, 28.02. 15:00 4(450m) 4(600m)
Mi, 28.02. 14:00 4(450m) 4(600m)
Mi, 28.02. 13:00 2(450m) 5(750m)
Ortszeit Luftdruck NN (hPa) Tendenz (hPa in 3 Std.)
Mi, 28.02. 19:00 1009 0,0
Mi, 28.02. 13:00 1010 - 1,1
Mi, 28.02. 7:00 1011 0,0
Mi, 28.02. 1:00 1012 + 0,8
Di, 27.02. 19:00 1010 + 0,2
Di, 27.02. 13:00 1011 - 0,2
Di, 27.02. 7:00 1011 - 0,2
Di, 27.02. 1:00 1012 + 0,5
Ortszeit Luftdruck NN (hPa) Tendenz (hPa in 3 Std.)
Mi, 28.02. 19:00 1009 0,0
Mi, 28.02. 18:00 1009 - 1,3
Mi, 28.02. 17:00 1009 - 2,0
Mi, 28.02. 16:00 1009 - 1,1
Mi, 28.02. 15:00 1010 - 1,2
Mi, 28.02. 14:00 1011 - 0,3
Mi, 28.02. 13:00 1010 - 1,1
Ortszeit Schneehöhe (cm)
Mi, 28.02. 19:00 -
Mi, 28.02. 13:00 -
Mi, 28.02. 7:00 0
Mi, 28.02. 1:00 -
Di, 27.02. 19:00 -
Di, 27.02. 13:00 -
Di, 27.02. 7:00 0
Di, 27.02. 1:00 -
Ortszeit Schneehöhe (cm)
Mi, 28.02. 19:00 -
Mi, 28.02. 18:00 -
Mi, 28.02. 17:00 -
Mi, 28.02. 16:00 -
Mi, 28.02. 15:00 -
Mi, 28.02. 14:00 -
Mi, 28.02. 13:00 -
Link zu dieser Seite / Seite empfehlen

Das Wetter in ...